K7PB Weather Reports


time (UTC)temp
C
wind
direction
speed
KPH
gust
KPH
rain 1hr
cm
rain 24hr
cm
rain mn
cm
humidity
%
barometer
mb
20260505040019 15 0.0 0.0 0.00 0.00 0.00 49 999.5
20260505034506 15 0.0 0.0 0.00 0.00 0.00 48 999.3
20260505033002 15 0.0 0.0 0.00 0.00 0.00 46 998.9
20260505031557 15 0.0 0.0 0.00 0.00 0.00 46 998.5
20260505030110 15 0.0 0.0 0.00 0.00 0.00 47 998.5
20260505024551 16 0.0 0.0 0.00 0.00 0.00 43 998.4
20260505023044 17 0.0 0.0 0.00 0.00 0.00 40 998.2
20260505021540 17 36 0.0 3.2 0.00 0.00 0.00 40 998.1
20260505020041 18 36 0.0 4.8 0.00 0.00 0.00 38 998.0
20260505014559 18 41 3.2 12.9 0.00 0.00 0.00 37 997.9
20260505013048 18 38 3.2 14.5 0.00 0.00 0.00 38 997.9
20260505011541 18 51 6.4 17.7 0.00 0.00 0.00 38 997.9
20260505010043 18 31 8.0 16.1 0.00 0.00 0.00 38 998.0
20260505004546 18 45 4.8 19.3 0.00 0.00 0.00 37 998.1
20260505003051 19 5 3.2 12.9 0.00 0.00 0.00 35 998.2
20260505001533 20 76 3.2 20.9 0.00 0.00 0.00 32 998.3
20260505000035 20 57 6.4 29.0 0.00 0.00 0.00 32 998.4
20260504234532 20 53 11.3 29.0 0.00 0.00 0.00 35 998.6
20260504233035 20 61 9.7 22.5 0.00 0.00 0.00 37 999.0
20260504231531 18 84 8.0 20.9 0.00 0.00 0.00 41 999.0
20260504230031 17 80 4.8 11.3 0.00 0.00 0.00 44 999.1
20260504224530 17 157 4.8 11.3 0.00 0.00 0.00 43 999.2
20260504223037 17 137 4.8 17.7 0.00 0.00 0.00 44 998.9
20260504221528 18 148 8.0 30.6 0.00 0.00 0.00 42 998.7
20260504220031 20 190 8.0 17.7 0.00 0.00 0.00 32 998.4
20260504214527 21 150 3.2 9.7 0.00 0.00 0.00 27 998.2
20260504213029 22 264 3.2 9.7 0.00 0.00 0.00 24 998.1
20260504211534 22 312 0.0 11.3 0.00 0.00 0.00 24 998.2
20260504210024 23 223 3.2 11.3 0.00 0.00 0.00 26 998.3
20260504204522 24 24 0.0 4.8 0.00 0.00 0.00 23 998.5
20260504203020 23 30 1.6 6.4 0.00 0.00 0.00 24 998.5
20260504201518 23 277 0.0 8.0 0.00 0.00 0.00 24 998.7
20260504200021 23 257 0.0 11.3 0.00 0.00 0.00 26 998.9
20260504194517 24 296 0.0 17.7 0.00 0.00 0.00 24 999.0
20260504193018 25 9 1.6 14.5 0.00 0.00 0.00 22 999.1
20260504191513 25 251 1.6 9.7 0.00 0.00 0.00 22 999.3
20260504190010 25 293 0.0 14.5 0.00 0.00 0.00 21 999.5
20260504184508 25 279 1.6 11.3 0.00 0.00 0.00 25 999.6
20260504183009 24 199 4.8 11.3 0.00 0.00 0.00 26 999.7
20260504181504 23 39 1.6 11.3 0.00 0.00 0.00 25 1000.1
20260504180101 23 196 1.6 12.9 0.00 0.00 0.00 26 1000.3
20260504174559 23 312 1.6 11.3 0.00 0.00 0.00 27 1000.4
20260504173058 23 126 1.6 9.7 0.00 0.00 0.00 29 1000.5
20260504171553 22 207 0.0 8.0 0.00 0.00 0.00 28 1000.7
20260504081545 12 0.0 0.0 0.00 0.00 0.00 37 1001.7
20260504044544 15 0.0 0.0 0.00 0.00 0.00 36 1001.8
20260504043043 15 0.0 0.0 0.00 0.00 0.00 34 1001.9
20260504041536 16 0.0 0.0 0.00 0.00 0.00 31 1001.9